Terminal Aerodrome Forecast
Issued by NWS New Orleans/Baton Rouge, LA

Home | Current Version | Previous Version | Text Only | Print | Product List | Glossary On
Versions: 1 2 3 4 5 6 7 8 9 10 11 12 13 14 15 16 17 18 19 20 21 22 23 24 25
000
FTUS44 KLIX 251153
TAFNEW
TAF
KNEW 251153Z 2512/2612 16007KT P6SM VCSH BKN200
     FM251900 14013KT P6SM VCTS OVC030CB
     FM260000 14014KT P6SM BKN050=

USA.gov is the U.S. government's official web portal to all federal, state and local government web resources and services.